Regional Weather Roundup
Issued by NWS

Home | Current Version | Previous Version | Graphics & Text | Print | Product List | Glossary On
Versions: 1 2 3 4 5 6 7 8 9 10 11 12 13 14 15 16 17 18 19 20 21 22 23 24 25 26 27 28 29 30 31 32 33 34 35 36 37 38 39 40 41 42 43 44 45 46 47 48 49 50
482
ASUS44 KJAN 290103
RWRMS

MISSISSIPPI HOURLY WEATHER ROUNDUP
NATIONAL WEATHER SERVICE JACKSON MS
800 PM CDT THU AUG 28 2014

NOTE: "FAIR: INDICATES FEW OR NO CLOUDS BELOW 12,000 FEET WITH NO
SIGNIFICANT WEATHER AND/OR OBSTRUCTIONS TO VISIBILITY.

MSZ001>002-007>008-010>013-018>021-025>028-034>036-290200-
NORTHWEST MISSISSIPPI

CITY           SKY/WX    TMP DP  RH WIND       PRES   REMARKS
CLARKSDALE     FAIR      82  70  65 CALM      29.93S
CLEVELAND      FAIR      81  71  72 CALM      29.92R
GREENWOOD      CLEAR     79  71  76 CALM      29.92S
GREENVILLE     CLEAR     81  69  67 E7        29.91R
GRENADA        FAIR      73  68  83 CALM      29.94R
OLIVE BRANCH   MOCLDY    84  66  54 CALM      29.96R
OXFORD         FAIR      79  68  69 CALM      29.97S
TUNICA         CLEAR     79  66  65 E3        29.94S
$$

MSZ003>006-009-014>017-022>024-029>033-037>039-290200-
NORTHEAST MISSISSIPPI

CITY           SKY/WX    TMP DP  RH WIND       PRES   REMARKS
BELMONT        FAIR      76  70  81 CALM      29.97S
COLUMBUS AFB   CLEAR     80  65  59 CALM      29.94R
CORINTH        FAIR      79  72  78 CALM      29.96R
GOLDN TRIANGLE PTCLDY    86  63  45 CALM      29.95R
STARKVILLE     MOCLDY    77  64  65 CALM      29.94R
TUPELO         CLEAR     84  64  50 CALM      29.95R
$$

MSZ040-058-290200-
CENTRAL MISSISSIPPI

CITY           SKY/WX    TMP DP  RH WIND       PRES   REMARKS
JACKSON INTL   PTCLDY    82  70  66 CALM      29.94R
JACKSON HAWKNS PTCLDY    81  68  64 SW3       29.94R
MERIDIAN KEY   PTCLDY    79  69  71 CALM      29.94R
MERIDIAN NAS   MOCLDY    80  67  64 CALM      29.95R
RAYMOND        FAIR      77  72  83 CALM      29.94R
VICKSBURG      CLOUDY    77  74  90 CALM      29.92F
$$

MSZ059>079-290200-
SOUTH MISSISSIPPI

CITY           SKY/WX    TMP DP  RH WIND       PRES   REMARKS
BROOKHAVEN     FAIR      79  75  89 CALM      29.96R
COLUMBIA       FAIR      81  73  78 S5        29.93R
HATTIESBURG    MOCLDY    83  71  67 SE3       29.95R
MCCOMB         MOCLDY    82  73  74 S3        29.94R
NATCHEZ        MOCLDY    82  75  78 E5        29.94R
PINE BELT      MOCLDY    81  68  65 S3        29.96S
$$

MSZ080>082-290200-
COASTAL MISSISSIPPI

CITY           SKY/WX    TMP DP  RH WIND       PRES   REMARKS
BAY ST LOUIS   PTCLDY   N/A N/A N/A SE6       29.93R
BILOXI         PTCLDY    83  71  65 E2        29.93S
PASCAGOULA     PTCLDY    74  72  93 CALM      29.94R
GULFPORT       PTCLDY    83  72  69 SE8       29.93S
$$



USA.gov is the U.S. government's official web portal to all federal, state and local government web resources and services.